EW1514 Weather Reports


time (UTC)temp
C
wind
direction
speed
KPH
gust
KPH
rain 1hr
cm
rain 24hr
cm
rain mn
cm
humidity
%
barometer
mb
20260507130014 19 52 0.0 6.4 0.00 0.03 0.03 61 1017.0
20260507124517 19 54 6.4 17.7 0.00 0.03 0.03 62 1016.8
20260507123015 19 42 6.4 11.3 0.00 0.03 0.03 67 1017.4
20260507121622 18 23 0.0 16.1 0.00 0.03 0.03 69 1017.7
20260507120011 18 74 4.8 17.7 0.03 0.03 0.03 70 1018.0
20260507114511 19 88 3.2 8.0 0.03 0.03 0.03 72 1018.3
20260507113014 19 331 0.0 1.6 0.03 0.03 0.03 69 1018.6
20260507111509 19 331 0.0 1.6 0.03 0.03 0.03 67 1018.7
20260507110007 20 331 0.0 3.2 0.00 0.00 0.00 66 1018.6
20260507104507 20 331 1.6 4.8 0.00 0.00 0.00 64 1018.4
20260507103008 20 320 1.6 9.7 0.00 0.00 0.00 63 1018.6
20260507101512 20 298 4.8 8.0 0.00 0.00 0.00 61 1018.5
20260507100006 20 309 4.8 6.4 0.00 0.00 0.00 61 1018.4
20260507094502 20 294 0.0 6.4 0.00 0.00 0.00 63 1018.3
20260507093059 20 259 3.2 6.4 0.00 0.00 0.00 61 1018.1
20260507091557 20 248 0.0 1.6 0.00 0.00 0.00 62 1017.7
20260507090100 20 248 0.0 4.8 0.00 0.00 0.00 64 1017.5
20260507084600 20 284 1.6 6.4 0.00 0.00 0.00 65 1017.5
20260507083051 20 190 0.0 8.0 0.00 0.00 0.00 65 1017.3
20260507081551 20 206 3.2 8.0 0.00 0.00 0.00 63 1017.1
20260507080104 20 234 4.8 8.0 0.00 0.00 0.00 59 1017.0
20260507074545 20 250 0.0 4.8 0.00 0.00 0.00 59 1016.7
20260507073050 20 115 0.0 1.6 0.00 0.00 0.00 62 1016.4
20260507071542 20 278 0.0 4.8 0.00 0.00 0.00 65 1016.6
20260507070041 20 203 1.6 6.4 0.00 0.00 0.00 66 1016.6
20260507064535 19 192 3.2 9.7 0.00 0.00 0.00 66 1016.7
20260507063034 20 229 3.2 9.7 0.00 0.00 0.00 64 1016.7
20260507061532 19 213 3.2 8.0 0.00 0.00 0.00 61 1016.7
20260507060027 19 220 1.6 6.4 0.00 0.00 0.00 63 1016.5
20260507054530 18 338 0.0 3.2 0.00 0.00 0.00 68 1016.2
20260507053019 17 339 0.0 0.0 0.00 0.00 0.00 71 1016.3
20260507051516 16 339 0.0 0.0 0.00 0.00 0.00 72 1016.1
20260507050012 16 339 0.0 3.2 0.00 0.00 0.00 74 1016.1
20260507044508 15 339 0.0 0.0 0.00 0.00 0.00 77 1016.2
20260507043009 14 339 0.0 1.6 0.00 0.00 0.00 78 1016.2
20260507041601 13 338 0.0 0.0 0.00 0.00 0.00 78 1016.1
20260507034558 13 43 0.0 1.6 0.00 0.00 0.00 77 1015.8
20260507033059 13 43 0.0 0.0 0.00 0.00 0.00 76 1015.6
20260507031552 13 43 0.0 0.0 0.00 0.00 0.00 76 1015.6
20260507030051 13 43 0.0 0.0 0.00 0.00 0.00 76 1015.6
20260507024603 13 43 0.0 0.0 0.00 0.00 0.00 77 1015.4
20260507023051 13 43 0.0 3.2 0.00 0.00 0.00 78 1015.3
20260507021548 13 65 0.0 4.8 0.00 0.00 0.00 79 1015.1
20260507020106 13 309 0.0 0.0 0.00 0.00 0.00 80 1015.3
20260507014552 13 309 0.0 0.0 0.00 0.00 0.00 80 1015.1
20260507013052 13 298 0.0 3.2 0.00 0.00 0.00 80 1015.1
20260507011545 14 276 0.0 0.0 0.00 0.00 0.00 79 1015.1
20260507010045 14 276 0.0 0.0 0.00 0.00 0.00 79 1015.0
20260507004552 14 276 0.0 3.2 0.00 0.00 0.00 79 1014.8
20260507003044 15 276 0.0 4.8 0.00 0.00 0.00 80 1014.8
20260507001545 15 88 1.6 6.4 0.00 0.00 0.00 80 1014.7
20260507000037 15 81 1.6 6.4 0.00 0.00 0.00 80 1014.9
20260506234539 15 37 0.0 3.2 0.00 0.00 0.00 80 1015.2
20260506233034 15 33 0.0 0.0 0.00 0.00 0.00 79 1015.2
20260506231533 15 50 0.0 0.0 0.00 0.00 0.00 79 1015.2
20260506230037 15 50 0.0 3.2 0.00 0.00 0.00 79 1015.1
20260506224533 15 111 0.0 0.0 0.00 0.00 0.00 78 1015.2
20260506223039 15 111 0.0 3.2 0.00 0.00 0.00 78 1015.2
20260506221526 16 60 0.0 0.0 0.00 0.00 0.00 79 1015.2
20260506220025 16 60 0.0 3.2 0.00 0.00 0.00 79 1015.2
20260506214536 16 60 0.0 4.8 0.00 0.00 0.00 78 1015.2
20260506213021 16 58 0.0 1.6 0.00 0.00 0.00 78 1015.4
20260506211518 16 35 0.0 0.0 0.00 0.00 0.00 77 1015.4
20260506210020 16 35 0.0 0.0 0.00 0.00 0.00 77 1015.4
20260506204515 16 35 0.0 0.0 0.00 0.00 0.00 76 1015.7
20260506203018 16 35 0.0 0.0 0.00 0.00 0.00 76 1015.4
20260506201515 16 35 0.0 3.2 0.00 0.00 0.00 76 1015.3
20260506200013 16 32 1.6 4.8 0.00 0.00 0.00 75 1015.2
20260506194513 17 69 0.0 0.0 0.00 0.00 0.00 75 1015.0
20260506193014 17 69 0.0 0.0 0.00 0.00 0.00 76 1014.8
20260506191511 17 69 0.0 1.6 0.00 0.00 0.00 76 1014.8
20260506190014 17 68 0.0 1.6 0.00 0.00 0.00 76 1014.7
20260506184517 17 69 0.0 6.4 0.00 0.00 0.00 75 1014.6
20260506183018 18 74 1.6 4.8 0.00 0.00 0.00 75 1014.5
20260506181514 18 248 0.0 3.2 0.00 0.00 0.00 74 1014.4
20260506180008 18 248 0.0 4.8 0.00 0.00 0.00 74 1014.2
20260506174507 18 248 0.0 4.8 0.00 0.00 0.00 73 1014.0
20260506173007 19 248 1.6 8.0 0.00 0.00 0.00 71 1013.8
20260506171507 19 259 1.6 8.0 0.00 0.00 0.00 69 1013.7
20260506170005 20 163 3.2 8.0 0.00 0.00 0.00 68 1013.6
20260506164508 20 240 3.2 9.7 0.00 0.00 0.00 66 1013.6
20260506163002 21 228 4.8 12.9 0.00 0.00 0.00 64 1013.7
20260506161501 21 275 8.0 16.1 0.00 0.00 0.00 61 1013.7
20260506160001 22 271 4.8 12.9 0.00 0.00 0.00 58 1013.6
20260506154604 22 242 4.8 11.3 0.00 0.00 0.00 56 1013.7
20260506153113 22 228 6.4 14.5 0.00 0.00 0.00 53 1013.8
20260506151557 23 238 4.8 14.5 0.00 0.00 0.00 52 1013.8
20260506144558 23 286 4.8 14.5 0.00 0.00 0.00 51 1013.8
20260506143054 23 234 9.7 17.7 0.00 0.00 0.00 47 1013.9
20260506141548 24 227 4.8 16.1 0.00 0.00 0.00 47 1013.9
20260506140044 24 232 6.4 19.3 0.00 0.00 0.00 48 1014.0
20260506134541 24 217 8.0 17.7 0.00 0.00 0.00 45 1013.9
20260506133039 24 223 6.4 17.7 0.00 0.00 0.00 45 1014.0
20260506131541 25 209 6.4 14.5 0.00 0.00 0.00 43 1014.2